Location: ????????
(37.9452°N, 23.1472°E)
Time: 11:17:17
(UTC+00:00)

Cosmos 1782 Rocket - Pass Details

Date: 18 April 2024
Orbit: 604 x 628 km, 82.5° (Epoch: 19 May)

Event Time Altitude Azimuth Distance (km) Brightness Sun altitude
Rises 17:47:47 0° 192° (SSW) 2,861 6.9 -8.6°
Reaches altitude 10° 17:49:59 10° 195° (SSW) 1,965 6.1 -9.0°
Maximum altitude 17:54:19 68° 278° (W) 668 4.0 -9.8°
Drops below altitude 10° 17:58:43 10° 2° (N) 1,995 6.5 -10.6°
Sets 18:00:59 0° 5° (N) 2,909 7.3 -11.0°
